Regional Weather Roundup
Issued by NWS Newport/Morehead, NC

Current Version | Previous Version | Graphics & Text | Print | Product List | Glossary Off
Versions: 1 2 3 4 5 6 7 8 9 10 11 12 13 14 15 16 17 18 19 20 21 22 23 24 25 26 27 28 29 30 31 32 33 34 35 36 37 38 39 40 41 42 43 44 45 46 47 48 49 50

000
ASUS42 KMHX 231222
RWRMHX
WEATHER ROUNDUP FOR EASTERN NORTH CAROLINA
NATIONAL WEATHER SERVICE NEWPORT/MOREHEAD CITY NC
800 AM EDT WED JUL 23 2014

NOTE: "FAIR" INDICATES FEW OR NO CLOUDS BELOW 12,000 FEET
WITH NO SIGNIFICANT WEATHER AND/OR OBSTRUCTIONS TO VISIBILITY

NCZ015>017-031-032-045>047-102-103-231300-
NORTH COAST

CITY           SKY/WX    TMP DP  RH WIND       PRES   REMARKS
EDENTON        CLOUDY    77  75  93 NW5       30.06R
ELIZABETH CITY CLOUDY    76  74  93 W6        30.05R
KITTY HAWK     PTSUNNY   76  75  95 W3        30.04S
MANTEO         NOT AVBL

$$

NCZ045>047-081-094-103-104-231300-
CENTRAL COAST

CITY           SKY/WX    TMP DP  RH WIND       PRES   REMARKS
FRISCO         MOSUNNY   80  76  87 W9        30.05F
SWANQUARTER      N/A     79 N/A N/A W12       30.03S

$$

NCZ095-097-098-100-101-231300-
SOUTHERN COAST

CITY           SKY/WX    TMP DP  RH WIND       PRES   REMARKS
BEAUFORT       SUNNY     80  75  84 W3        30.06S
CEDAR ISLAND     N/A     79 N/A N/A W9        30.12R
JACKSONVILLE   SUNNY     77  74  90 W6        30.06S
NEWPORT        NOT AVBL
PINEY ISLAND   PTSUNNY   78  77  96 W7        30.07R
WILMINGTON     SUNNY     78  74  87 W6        30.06S


$$

NCZ011>013-027>030-043-044-078>080-089-090>093-098-231300-
COASTAL PLAIN

CITY           SKY/WX    TMP DP  RH WIND       PRES   REMARKS
AHOSKIE        CLOUDY    73  72  96 CALM      30.06S
CLINTON        CLOUDY    75  75 100 W3        30.08R FOG
ELIZABETHTOWN  CLOUDY    74  74 100 W6        30.08R FOG
GOLDSBORO      CLOUDY    77  77  99 SW7       30.06R
GREENVILLE     CLOUDY    75  75 100 CALM      30.08S FOG
HAVELOCK       MOSUNNY   77  73  87 W5        30.07R
KENANSVILLE    CLOUDY    76  73  91 W6        30.08S
KINSTON        CLOUDY    75  75 100 SW3       30.08R FOG
NEW BERN       MOSUNNY   79  73  83 W5        30.08R
RICHLANDS      MOSUNNY   79  73  83 W5        30.07R
ROANOKE RAPIDS NOT AVBL
ROCKY MOUNT    CLOUDY    75  73  93 SW6       30.07R
WASHINGTON     CLOUDY    75  74  95 W3        30.07R
WHITEVILLE     SUNNY     76  74  92 CALM      30.07S

$$

AMZ130-135-150-152-154-156-158-170-250-252-270-ANZ085-086-088-633-658-670-231300-
MARINE OBSERVATIONS

STATION/POSITION TIME  TEMP    WIND        PRES    WAVE   SWELL
                       AIR SEA DIR/SP/G            HT/PER HT/PER
                 (UTC) (F)     (DEG/KT/KT) (MB)    (FT/S) (FT/S)
CHESAPEAKE LIGHT NOT AVBL
BUOY 44014       1200   77 78  260/  4/  6 1016.7    3/ 5   2/ 5
DUCK             1200   76 73  290/  8/ 10 1016.9
2E DUCK          1200                        N/A     2/ 6
OREGON INLET     1200   77 79  250/  9/ 12 1017.6
BUOY 44095       1200      77                N/A     3/ 5
20E OREGON INLET 1100          VRB 10/ 12    N/A
HATTERAS CG      1200   80 82  260/  7/ 10 1018.3
DIAMOND BUOY     1200          VRB 10/ 12  1017.8    3/10   2/10
CAPE LOOKOUT     1200   80     260/  9/ 10 1018.0
BEAUFORT LAB     1200   80 80  270/  3/  5 1017.7
30 SE NEW RIVER  1200   79 80  230/ 10/ 10 1018.2    3/ 7   3/ 7
5 SE WRIGHTSVILL 1200   76 81  290/  6/  8   N/A
BUOY 41002       1123   81 82  210/ 16/ 17 1020.8    3/ 7   2/ 7
BUOY 41004       1200   80 82  150/  8/ 10 1017.5    3/ 7   3/ 7

$$


USA.gov is the U.S. government's official web portal to all federal, state and local government web resources and services.